EW8081 Weather Reports


Display with metric or nautical units.
time (UTC)temp
F
wind
direction
speed
MPH
gust
MPH
rain 1hr
in
rain 24hr
in
rain mn
in
humidity
%
barometer
mb
20260903211526 58 311 5.0 13.0 0.00 0.00 0.00 64 1020.0
20260903210026 57 280 7.0 13.0 0.00 0.00 0.00 64 1019.8
20260903204523 57 281 5.0 11.0 0.00 0.00 0.00 65 1019.6
20260903203025 56 336 4.0 11.0 0.00 0.00 0.00 65 1019.5
20260903201523 56 303 5.0 11.0 0.00 0.00 0.00 65 1019.6
20260903200036 56 309 6.0 11.0 0.00 0.00 0.00 65 1019.3
20260903194532 56 307 7.0 11.0 0.00 0.00 0.00 66 1019.0
20260903193014 56 301 6.0 11.0 0.00 0.00 0.00 66 1018.7
20260903191517 55 286 4.0 9.0 0.00 0.00 0.00 66 1018.8
20260903190009 55 294 4.0 8.0 0.00 0.00 0.00 66 1018.6
20260903184507 56 279 4.0 9.0 0.00 0.00 0.00 65 1018.6
20260903183004 56 283 2.0 12.0 0.00 0.00 0.00 63 1018.7
20260903181638 57 293 4.0 10.0 0.00 0.00 0.00 63 1018.3
20260903180058 57 324 4.0 10.0 0.00 0.00 0.00 62 1018.1
20260903174601 58 285 6.0 15.0 0.00 0.00 0.00 61 1018.0
20260903173104 58 284 5.0 14.0 0.00 0.00 0.00 61 1017.8
20260903171600 58 309 7.0 13.0 0.00 0.00 0.00 62 1017.7
20260903170050 58 278 5.0 9.0 0.00 0.00 0.00 61 1017.9
20260903164547 58 281 3.0 10.0 0.00 0.00 0.00 61 1018.0
20260903163043 58 307 4.0 10.0 0.00 0.00 0.00 60 1018.3
20260903161558 59 314 5.0 11.0 0.00 0.00 0.00 59 1018.4
20260903160039 59 290 4.0 11.0 0.00 0.00 0.00 59 1018.5
20260903154537 59 288 5.0 15.0 0.00 0.00 0.00 58 1018.5
20260903153035 59 317 8.0 18.0 0.00 0.00 0.00 58 1018.5
20260903151533 59 291 7.0 15.0 0.00 0.00 0.00 59 1018.5
20260903150031 59 291 5.0 12.0 0.00 0.00 0.00 60 1018.4
20260903144529 59 288 2.0 9.0 0.00 0.00 0.00 60 1018.8
20260903143035 59 265 2.0 9.0 0.00 0.00 0.00 59 1018.9
20260903141523 59 272 3.0 11.0 0.00 0.00 0.00 59 1019.0
20260903140021 60 286 1.0 10.0 0.00 0.00 0.00 58 1018.9
20260903134517 61 281 3.0 16.0 0.00 0.00 0.00 57 1018.6
20260903133019 61 317 4.0 10.0 0.00 0.00 0.00 57 1018.6
20260903131520 61 305 5.0 11.0 0.00 0.00 0.00 57 1018.2
20260903130011 62 311 6.0 12.0 0.00 0.00 0.00 56 1018.0
20260903124507 62 288 5.0 13.0 0.00 0.00 0.00 55 1017.7
20260903123005 62 310 8.0 16.0 0.00 0.00 0.00 54 1017.4
20260903121502 63 313 6.0 14.0 0.00 0.00 0.00 53 1017.4
20260903114557 64 297 4.0 12.0 0.00 0.00 0.00 54 1016.8
20260903113054 64 305 5.0 11.0 0.00 0.00 0.00 56 1016.7
20260903111552 65 327 6.0 15.0 0.00 0.00 0.00 54 1016.6
20260903110050 65 331 6.0 13.0 0.00 0.00 0.00 54 1016.4
20260903104549 65 291 4.0 8.0 0.00 0.00 0.00 53 1016.0
20260903103047 66 300 4.0 12.0 0.00 0.00 0.00 51 1015.9
20260903101545 67 304 3.0 9.0 0.00 0.00 0.00 50 1015.6
20260903100043 67 287 3.0 11.0 0.00 0.00 0.00 49 1015.2
20260903094543 68 301 3.0 12.0 0.00 0.00 0.00 47 1015.1
20260903093040 68 324 5.0 12.0 0.00 0.00 0.00 46 1014.6
20260903091551 69 337 5.0 10.0 0.00 0.00 0.00 45 1014.2
20260903090036 70 310 4.0 10.0 0.00 0.00 0.00 44 1014.2
20260903084533 70 300 6.0 14.0 0.00 0.00 0.00 42 1013.6
20260903083032 71 306 5.0 15.0 0.00 0.00 0.00 41 1013.3
20260903081529 71 292 5.0 14.0 0.00 0.00 0.00 40 1012.8
20260903080028 72 360 4.0 12.0 0.00 0.00 0.00 40 1012.5
20260903074527 72 307 3.0 10.0 0.00 0.00 0.00 38 1012.5
20260903073038 73 332 3.0 10.0 0.00 0.00 0.00 38 1012.3
20260903071523 75 334 3.0 9.0 0.00 0.00 0.00 35 1011.9
20260903070022 77 303 5.0 13.0 0.00 0.00 0.00 28 1011.7
20260903064525 81 287 3.0 13.0 0.00 0.00 0.00 26 1011.4
20260903063019 83 276 5.0 12.0 0.00 0.00 0.00 24 1010.9
20260903061522 83 335 4.0 14.0 0.00 0.00 0.00 25 1010.7
20260903060018 84 284 8.0 14.0 0.00 0.00 0.00 26 1010.5
20260903054517 84 294 6.0 14.0 0.00 0.00 0.00 27 1010.1
20260903053016 83 341 8.0 17.0 0.00 0.00 0.00 26 1010.0
20260903051616 84 331 9.0 14.0 0.00 0.00 0.00 27 1009.9
20260903050015 85 293 6.0 16.0 0.00 0.00 0.00 26 1009.9
20260903044514 85 324 3.0 18.0 0.00 0.00 0.00 27 1009.7
20260903043013 84 321 10.0 24.0 0.00 0.00 0.00 26 1009.4
20260903041511 85 281 9.0 19.0 0.00 0.00 0.00 27 1009.1
20260903040010 86 293 6.0 19.0 0.00 0.00 0.00 29 1008.9
20260903034518 86 328 6.0 16.0 0.00 0.00 0.00 28 1008.9
20260903033009 86 311 9.0 17.0 0.00 0.00 0.00 30 1008.8
20260903031507 86 321 4.0 13.0 0.00 0.00 0.00 29 1008.9
20260903030005 86 267 4.0 11.0 0.00 0.00 0.00 30 1008.7
20260903024502 85 289 6.0 16.0 0.00 0.00 0.00 31 1008.8
20260903023106 84 284 7.0 18.0 0.00 0.00 0.00 31 1008.9
20260903021558 85 295 5.0 13.0 0.00 0.00 0.00 31 1009.0
20260903020057 84 304 8.0 18.0 0.00 0.00 0.00 32 1009.0
20260903014558 84 268 6.0 14.0 0.00 0.00 0.00 32 1009.1
20260903013053 84 338 9.0 21.0 0.00 0.00 0.00 30 1008.9
20260903011550 83 10 9.0 19.0 0.00 0.00 0.00 31 1008.9
20260903010046 83 329 8.0 18.0 0.00 0.00 0.00 32 1008.7
20260903004547 83 291 9.0 16.0 0.00 0.00 0.00 31 1008.6
20260903003040 82 322 12.0 23.0 0.00 0.00 0.00 32 1008.7
20260903001539 82 360 12.0 21.0 0.00 0.00 0.00 34 1008.5
20260903000043 81 317 10.0 20.0 0.00 0.00 0.00 36 1008.5
20260902234536 82 284 9.0 16.0 0.00 0.00 0.00 35 1008.6
20260902233033 81 307 8.0 15.0 0.00 0.00 0.00 36 1008.3
20260902231529 80 305 5.0 16.0 0.00 0.00 0.00 38 1008.3
20260902230025 78 360 6.0 16.0 0.00 0.00 0.00 40 1008.4
20260902224522 76 343 3.0 12.0 0.00 0.00 0.00 44 1008.2
20260902223030 73 23 5.0 13.0 0.00 0.00 0.00 48 1008.2
20260902221519 72 320 4.0 13.0 0.00 0.00 0.00 50 1008.3
20260902220013 71 50 4.0 10.0 0.00 0.00 0.00 50 1008.5
20260902214509 69 5 4.0 10.0 0.00 0.00 0.00 54 1008.3
20260902213008 68 360 4.0 12.0 0.00 0.00 0.00 55 1008.3